Location: Franzen
(48.6167°N, 15.3833°E)
Time: 23:50:05
(UTC+00:00)

Cosmos 2219 - Pass Details

Date: 30 July 2021
Orbit: 834 x 859 km, 71.1° (Epoch: 22 September)

Event Time Altitude Azimuth Distance (km) Brightness Sun altitude
Exits shadow 00:23:17 28° 247° (WSW) 1,569 4.2 -20.6°
Maximum altitude 00:26:01 48° 305° (NW) 1,115 3.9 -20.5°
Drops below altitude 10° 00:31:35 10° 20° (NNE) 2,506 6.9 -20.2°
Sets 00:34:10 0° 26° (NNE) 3,447 8.0 -20.0°
